Weather History for Zapata, TX

Change the Weather History Date:

Tuesday, March 12, 2013

  Actual Average (KLRD) Record (KLRD)
Temperature  
Mean Temperature 64 °F 67 °F  
Max Temperature 82 °F 79 °F 101 °F (1904)
Min Temperature 46 °F 56 °F 29 °F (1932)
Degree Days  
Heating Degree Days 1 3  
Month to date heating degree days 41  
Since 1 July heating degree days 885  
Cooling Degree Days 0 5  
Month to date cooling degree days 51  
Year to date cooling degree days 136  
Growing Degree Days 14 (Base 50)    
Moisture  
Dew Point 21 °F    
Average Humidity 24    
Maximum Humidity 70    
Minimum Humidity 8    
Precipitation  
Precipitation 0.00 in 0.03 in 2.71 in (1993)
Month to date precipitation 0.47  
Year to date precipitation 2.31  
Sea Level Pressure  
Sea Level Pressure 30.09 in    
Wind  
Wind Speed 5 mph (SSE)    
Max Wind Speed 10 mph    
Max Gust Speed 20 mph    
Visibility 10 miles    
Events      
T = Trace of Precipitation, MM = Missing Value Source: NWS Daily Summary

Daily Weather History Graph

Daily Weather History Graph

Search for Another Location

Airport:

Trip Planner

Search our weather history database for the weather conditions in past years. The results will help you decide how hot, cold, wet, or windy it might be!

Date:

Astronomy

Mar. 12, 2013 Rise Set
Actual Time 7:49 AM CDT 7:44 PM CDT
Civil Twilight 7:26 AM CDT 8:07 PM CDT
Nautical Twilight 6:59 AM CDT 8:34 PM CDT
Astronomical Twilight 6:32 AM CDT 9:01 PM CDT
Moon 8:05 AM CDT (3/12) 8:49 PM CDT (3/12)
Length of Visible Light 12h 41m
Length of Day
11h 55m
New Moon, 1% of the Moon is Illuminated
Mar 12
New Moon
Mar 19
First Quarter
Mar 27
Full
Apr 2
Last Quarter
Apr 10
New

Hourly Weather History & Observations

Time (CDT) Temp. Windchill Dew Point Humidity Pressure Visibility Wind Dir Wind Speed Gust Speed Precip Events Conditions
12:15 AM 52.3 °F - 11.7 °F 20% 30.08 in 10.0 mi ENE 3.5 mph - N/A   Clear
12:35 AM 53.2 °F - 10.8 °F 18% 30.08 in 10.0 mi Calm Calm - N/A   Clear
1:15 AM 54.7 °F - 11.7 °F 18% 30.08 in 10.0 mi SE 4.6 mph - N/A   Clear
1:35 AM 54.9 °F - 17.1 °F 23% 30.08 in 10.0 mi SE 4.6 mph - N/A   Clear
1:55 AM 56.3 °F - 25.3 °F 30% 30.09 in 10.0 mi SE 5.8 mph - N/A   Clear
4:55 AM 51.8 °F - 34.7 °F 52% 30.07 in 10.0 mi SE 4.6 mph - N/A   Clear
7:35 AM 46.4 °F 44.3 °F 35.8 °F 67% 30.10 in 10.0 mi SSE 4.6 mph - N/A   Clear
7:55 AM 48.0 °F - 37.4 °F 67% 30.11 in 10.0 mi SE 4.6 mph - N/A   Clear
8:15 AM 46.4 °F - 37.0 °F 70% 30.11 in 10.0 mi Calm Calm - N/A   Clear
10:55 AM 68.2 °F - 30.6 °F 25% 30.16 in 10.0 mi SSE 6.9 mph - N/A   Clear
11:15 AM 70.2 °F - 28.9 °F 22% 30.16 in 10.0 mi SE 3.5 mph - N/A   Clear
11:35 AM 72.1 °F - 27.7 °F 19% 30.16 in 10.0 mi SE 6.9 mph - N/A   Clear
12:15 PM 74.8 °F - 23.2 °F 15% 30.15 in 10.0 mi SSE 4.6 mph - N/A   Clear
1:55 PM 79.7 °F - 14.9 °F 9% 30.10 in 10.0 mi SSE 4.6 mph - N/A   Clear
3:35 PM 82.8 °F - 14.9 °F 8% 30.07 in 10.0 mi SSE 8.1 mph - N/A   Clear
3:55 PM 82.4 °F - 16.7 °F 9% 30.06 in 10.0 mi SSW 8.1 mph - N/A   Clear
4:15 PM 80.6 °F - 17.6 °F 10% 30.05 in 10.0 mi South 10.4 mph 19.6 mph N/A   Clear
4:35 PM 80.8 °F - 14.9 °F 8% 30.05 in 10.0 mi SSW 5.8 mph 18.4 mph N/A   Clear
5:55 PM 80.8 °F - 16.7 °F 9% 30.04 in 10.0 mi South 8.1 mph - N/A   Clear
6:15 PM 81.1 °F - 15.3 °F 8% 30.05 in 10.0 mi SSE 9.2 mph - N/A   Clear
6:35 PM 80.2 °F - 12.6 °F 8% 30.06 in 10.0 mi SE 8.1 mph - N/A   Clear
6:55 PM 79.3 °F - 12.7 °F 8% 30.06 in 10.0 mi SE 10.4 mph - N/A   Clear
9:55 PM 66.6 °F - 22.1 °F 18% 30.15 in 10.0 mi ESE 6.9 mph - N/A   Clear